Tracking 30918 objects as of 3-Jul-2025
HD Live streaming from Space Station
objects crossing your sky now

ONEWEB-0435

Track ONEWEB-0435 now!
10-day predictions
ONEWEB-0435 is classified as:


NORAD ID: 51632
Int'l Code: 2022-012L
Perigee: 1,227.1 km
Apogee: 1,230.6 km
Inclination: 87.9 °
Period: 109.9 minutes
Semi major axis: 7599 km
RCS: Unknown
Launch date: February 10, 2022
Source: United Kingdom (UK)
Launch site: FRENCH GUIANA (FRGUI)
Your satellite tracking list
USA 142
Track 1 satellite(s)




NASA's NSSDC Master Catalog

Two Line Element Set (TLE):
1 51632U 22012L   25183.47824777  .00000332  00000-0  91515-3 0  9991
2 51632  87.8828 106.0273 0002289  87.6778 272.4611 13.10369802163515
Source of the keplerian elements: AFSPC